When you browse on this site, cookies collect data to enhance your experience and personalize the content and advertising you see.
Visit our Privacy Policy to learn more. By continuing to use the site, you agree to this use of cookies and data.
  • In Hungary
  • List of Countries
  • For 7 days
  • Water Temperature
  • Satellite Maps
  • Weather Map
  • News
  • Weather Widgets
  • user-avatar
    Login

    Hourly Weather Hod

    Today, 16 November, Friday

    Time Temperature Precipitation Wind Pressure Humidity
    00:00 +29°C° 0 mm 3 mps 730 mmHg 19%
    01:00 +29°C° 0 mm 3 mps 730 mmHg 19%
    02:00 +29°C° 0 mm 3 mps 730 mmHg 20%
    03:00 +28°C° 0 mm 3 mps 730 mmHg 20%
    04:00 +28°C° 0 mm 3 mps 730 mmHg 20%
    05:00 +28°C° 0 mm 3 mps 730 mmHg 20%
    06:00 +28°C° 0 mm 3 mps 730 mmHg 20%
    07:00 +29°C° 0 mm 3 mps 730 mmHg 20%
    08:00 +29°C° 0 mm 3 mps 730 mmHg 19%
    09:00 +30°C° 0 mm 3 mps 731 mmHg 18%
    10:00 +33°C° 0 mm 3 mps 730 mmHg 16%
    11:00 +34°C° 0 mm 3 mps 730 mmHg 14%
    12:00 +36°C° 0 mm 2 mps 730 mmHg 12%
    13:00 +36°C° 0 mm 2 mps 730 mmHg 11%
    14:00 +36°C° 0 mm 1 mps 729 mmHg 10%
    15:00 +34°C° 0 mm 0 mps 729 mmHg 9%
    16:00 +35°C° 0 mm 1 mps 729 mmHg 9%
    17:00 +35°C° 0 mm 1 mps 729 mmHg 10%
    18:00 +35°C° 0 mm 2 mps 729 mmHg 10%
    19:00 +34°C° 0 mm 2 mps 729 mmHg 11%
    20:00 +34°C° 0 mm 3 mps 730 mmHg 12%
    21:00 +33°C° 0 mm 4 mps 730 mmHg 13%
    22:00 +32°C° 0 mm 4 mps 730 mmHg 15%
    23:00 +30°C° 0 mm 4 mps 730 mmHg 16%

    Tomorrow, 17 November, Saturday

    Time Temperature Precipitation Wind Pressure Humidity
    00:00 +30°C° 0 mm 4 mps 730 mmHg 17%
    01:00 +29°C° 0 mm 4 mps 730 mmHg 18%
    02:00 +28°C° 0 mm 4 mps 729 mmHg 18%
    03:00 +28°C° 0 mm 4 mps 729 mmHg 18%
    04:00 +27°C° 0 mm 4 mps 729 mmHg 19%
    05:00 +27°C° 0 mm 4 mps 729 mmHg 19%
    06:00 +26°C° 0 mm 4 mps 729 mmHg 19%
    07:00 +27°C° 0 mm 4 mps 730 mmHg 18%
    08:00 +27°C° 0 mm 5 mps 730 mmHg 17%
    09:00 +28°C° 0 mm 5 mps 730 mmHg 17%
    10:00 +30°C° 0 mm 5 mps 730 mmHg 15%
    11:00 +32°C° 0 mm 4 mps 730 mmHg 14%
    12:00 +34°C° 0 mm 4 mps 730 mmHg 13%
    13:00 +34°C° 0 mm 3 mps 729 mmHg 12%
    14:00 +35°C° 0 mm 3 mps 729 mmHg 12%
    15:00 +36°C° 0 mm 2 mps 728 mmHg 11%
    16:00 +35°C° 0 mm 2 mps 728 mmHg 12%
    17:00 +34°C° 0 mm 2 mps 728 mmHg 12%
    18:00 +34°C° 0 mm 2 mps 728 mmHg 13%
    19:00 +33°C° 0 mm 3 mps 729 mmHg 14%
    20:00 +31°C° 0 mm 3 mps 729 mmHg 15%
    21:00 +32°C° 0 mm 4 mps 730 mmHg 16%
    22:00 +30°C° 0 mm 4 mps 730 mmHg 17%
    23:00 +29°C° 0 mm 4 mps 729 mmHg 19%

    Day after tomorrow, 18 November, Sunday

    Time Temperature Precipitation Wind Pressure Humidity
    00:00 +29°C° 0 mm 4 mps 729 mmHg 20%
    01:00 +28°C° 0 mm 4 mps 729 mmHg 20%
    02:00 +28°C° 0 mm 3 mps 728 mmHg 20%
    03:00 +28°C° 0 mm 3 mps 728 mmHg 21%
    04:00 +28°C° 0 mm 3 mps 728 mmHg 21%
    05:00 +28°C° 0 mm 2 mps 728 mmHg 21%
    06:00 +28°C° 0 mm 2 mps 728 mmHg 21%
    07:00 +28°C° 0 mm 3 mps 729 mmHg 20%
    08:00 +29°C° 0 mm 3 mps 729 mmHg 20%
    09:00 +29°C° 0 mm 3 mps 730 mmHg 19%
    10:00 +30°C° 0 mm 3 mps 730 mmHg 18%
    11:00 +30°C° 0 mm 4 mps 730 mmHg 17%
    12:00 +32°C° 0 mm 4 mps 730 mmHg 17%
    13:00 +32°C° 0 mm 4 mps 730 mmHg 17%
    14:00 +32°C° 0 mm 5 mps 729 mmHg 18%
    15:00 +32°C° 0 mm 5 mps 729 mmHg 19%
    16:00 +32°C° 0 mm 5 mps 729 mmHg 20%
    17:00 +30°C° 0 mm 4 mps 729 mmHg 21%
    18:00 +30°C° 0 mm 3 mps 729 mmHg 23%
    19:00 +29°C° 0 mm 3 mps 729 mmHg 24%
    20:00 +29°C° 0 mm 2 mps 730 mmHg 25%
    21:00 +29°C° 0 mm 1 mps 730 mmHg 26%
    22:00 +28°C° 0 mm 1 mps 730 mmHg 27%
    23:00 +28°C° 0 mm 1 mps 730 mmHg 28%

    19 November, Monday

    Time Temperature Precipitation Wind Pressure Humidity
    00:00 +27°C° 0 mm 1 mps 729 mmHg 29%
    01:00 +27°C° 0 mm 1 mps 729 mmHg 30%
    02:00 +27°C° 0 mm 2 mps 728 mmHg 32%
    03:00 +27°C° 0 mm 2 mps 728 mmHg 33%
    04:00 +27°C° 0 mm 2 mps 728 mmHg 34%
    05:00 +26°C° 0 mm 3 mps 728 mmHg 36%
    06:00 +26°C° 0 mm 3 mps 728 mmHg 37%
    07:00 +27°C° 0 mm 3 mps 729 mmHg 34%
    08:00 +27°C° 0 mm 3 mps 729 mmHg 30%
    09:00 +28°C° 0 mm 3 mps 730 mmHg 27%
    10:00 +29°C° 0 mm 4 mps 730 mmHg 24%
    11:00 +30°C° 0 mm 4 mps 730 mmHg 21%
    12:00 +32°C° 0 mm 4 mps 730 mmHg 18%
    13:00 +32°C° 0 mm 5 mps 729 mmHg 18%
    14:00 +30°C° 0 mm 5 mps 729 mmHg 17%
    15:00 +30°C° 0 mm 5 mps 728 mmHg 17%
    16:00 +29°C° 0 mm 4 mps 728 mmHg 18%
    17:00 +29°C° 0 mm 3 mps 728 mmHg 20%
    18:00 +28°C° 0 mm 2 mps 729 mmHg 21%
    19:00 +28°C° 0 mm 2 mps 729 mmHg 23%
    20:00 +27°C° 0 mm 2 mps 730 mmHg 24%
    21:00 +27°C° 0 mm 1 mps 730 mmHg 25%
    22:00 +27°C° 0 mm 1 mps 730 mmHg 26%
    23:00 +26°C° 0 mm 1 mps 730 mmHg 27%

    20 November, Tuesday

    Time Temperature Precipitation Wind Pressure Humidity
    00:00 +26°C° 0 mm 2 mps 730 mmHg 27%
    01:00 +26°C° 0 mm 2 mps 730 mmHg 27%
    02:00 +25°C° 0 mm 2 mps 729 mmHg 27%
    03:00 +25°C° 0 mm 2 mps 729 mmHg 27%
    04:00 +25°C° 0 mm 2 mps 729 mmHg 26%
    05:00 +25°C° 0 mm 2 mps 729 mmHg 25%
    06:00 +24°C° 0 mm 2 mps 729 mmHg 25%
    07:00 +25°C° 0 mm 2 mps 730 mmHg 23%
    08:00 +26°C° 0 mm 3 mps 730 mmHg 22%
    09:00 +27°C° 0 mm 3 mps 731 mmHg 21%
    10:00 +28°C° 0 mm 3 mps 731 mmHg 20%
    11:00 +29°C° 0 mm 3 mps 731 mmHg 19%
    12:00 +30°C° 0 mm 3 mps 731 mmHg 19%
    13:00 +30°C° 0 mm 2 mps 730 mmHg 19%
    14:00 +31°C° 0 mm 1 mps 730 mmHg 19%
    15:00 +31°C° 0 mm 1 mps 729 mmHg 19%
    16:00 +31°C° 0 mm 1 mps 730 mmHg 20%
    17:00 +30°C° 0 mm 1 mps 730 mmHg 21%
    18:00 +30°C° 0 mm 2 mps 730 mmHg 22%
    19:00 +29°C° 0 mm 2 mps 731 mmHg 24%
    20:00 +29°C° 0 mm 3 mps 731 mmHg 25%
    21:00 +28°C° 0 mm 3 mps 731 mmHg 27%
    22:00 +28°C° 0 mm 3 mps 731 mmHg 28%
    23:00 +27°C° 0 mm 3 mps 731 mmHg 30%

    21 November, Wednesday

    Time Temperature Precipitation Wind Pressure Humidity
    00:00 +27°C° 0 mm 4 mps 731 mmHg 31%
    01:00 +26°C° 0 mm 4 mps 730 mmHg 32%
    02:00 +26°C° 0 mm 4 mps 730 mmHg 33%
    03:00 +25°C° 0 mm 4 mps 729 mmHg 33%
    04:00 +25°C° 0 mm 4 mps 729 mmHg 34%
    05:00 +25°C° 0 mm 4 mps 730 mmHg 35%
    06:00 +23°C° 0 mm 4 mps 730 mmHg 36%
    07:00 +25°C° 0 mm 5 mps 730 mmHg 35%
    08:00 +25°C° 0 mm 5 mps 731 mmHg 34%
    09:00 +26°C° 0 mm 6 mps 732 mmHg 32%
    10:00 +28°C° 0 mm 5 mps 731 mmHg 30%
    11:00 +29°C° 0 mm 5 mps 731 mmHg 27%
    12:00 +30°C° 0 mm 5 mps 731 mmHg 24%
    13:00 +32°C° 0 mm 4 mps 730 mmHg 23%
    14:00 +32°C° 0 mm 4 mps 730 mmHg 22%
    15:00 +33°C° 0 mm 3 mps 729 mmHg 21%
    16:00 +31°C° 0 mm 3 mps 729 mmHg 21%
    17:00 +31°C° 0 mm 2 mps 729 mmHg 22%
    18:00 +30°C° 0 mm 2 mps 729 mmHg 23%
    19:00 +29°C° 0 mm 2 mps 730 mmHg 24%
    20:00 +29°C° 0 mm 2 mps 730 mmHg 25%
    21:00 +28°C° 0 mm 2 mps 731 mmHg 25%
    22:00 +28°C° 0 mm 3 mps 731 mmHg 26%
    23:00 +27°C° 0 mm 3 mps 730 mmHg 26%
    Show more